MEA262 LCLK-OLBA

Flight info

Callsign MEA262
Flight time 0h 22m
Altitude 15000
Route EMILI R19 KUKLA
Aircraft A320/M-SDE3FGHIRWY/LB1

Departure

Time 2026-05-01 10:08
Airport Larnaca International Airport (LCLK)

Arrival

Time 2026-05-01 10:31
Airport Beirut Rafic Hariri International Airport (OLBA)
Time Latitude Longitude Altitude Speed Heading
2026-05-01 09:22 34.86981 33.61091 21 ft 0 kts 225°
2026-05-01 09:57 34.86983 33.61094 20 ft 3 kts 225°
2026-05-01 09:57 34.87002 33.61117 20 ft 4 kts 225°
2026-05-01 09:58 34.87021 33.61140 24 ft 4 kts 225°
2026-05-01 09:58 34.87038 33.61160 23 ft 4 kts 211°
2026-05-01 09:58 34.87059 33.61165 22 ft 4 kts 147°
2026-05-01 09:58 34.87077 33.61143 24 ft 4 kts 128°
2026-05-01 09:59 34.87086 33.61129 22 ft 0 kts 135°
2026-05-01 10:01 34.87085 33.61131 22 ft 1 kts 135°
2026-05-01 10:01 34.87072 33.61147 23 ft 4 kts 134°
2026-05-01 10:01 34.87045 33.61180 22 ft 7 kts 134°
2026-05-01 10:02 34.87005 33.61230 20 ft 10 kts 134°
2026-05-01 10:02 34.86949 33.61295 21 ft 13 kts 136°
2026-05-01 10:02 34.86961 33.61392 21 ft 15 kts 45°
2026-05-01 10:02 34.87043 33.61487 21 ft 18 kts 45°
2026-05-01 10:03 34.87140 33.61604 20 ft 21 kts 44°
2026-05-01 10:03 34.87250 33.61740 22 ft 24 kts 45°
2026-05-01 10:03 34.87374 33.61893 20 ft 27 kts 45°
2026-05-01 10:03 34.87482 33.62024 22 ft 19 kts 45°
2026-05-01 10:04 34.87502 33.62139 22 ft 11 kts 126°
2026-05-01 10:04 34.87530 33.62224 20 ft 13 kts 44°
2026-05-01 10:04 34.87605 33.62314 20 ft 17 kts 45°
2026-05-01 10:04 34.87695 33.62424 20 ft 20 kts 45°
2026-05-01 10:05 34.87801 33.62553 20 ft 23 kts 45°
2026-05-01 10:05 34.87917 33.62692 20 ft 24 kts 44°
2026-05-01 10:05 34.88046 33.62844 20 ft 27 kts 45°
2026-05-01 10:05 34.88171 33.63004 20 ft 23 kts 46°
2026-05-01 10:06 34.88286 33.63149 20 ft 25 kts 45°
2026-05-01 10:06 34.88397 33.63282 20 ft 17 kts 44°
2026-05-01 10:06 34.88442 33.63380 20 ft 10 kts 99°
2026-05-01 10:06 34.88388 33.63449 21 ft 13 kts 137°
2026-05-01 10:07 34.88314 33.63521 20 ft 14 kts 173°
2026-05-01 10:07 34.88269 33.63489 22 ft 0 kts 227°
2026-05-01 10:07 34.88268 33.63488 21 ft 1 kts 227°
2026-05-01 10:07 34.88163 33.63358 20 ft 57 kts 225°
2026-05-01 10:08 34.86998 33.61932 84 ft 166 kts 226°
2026-05-01 10:08 34.86128 33.60898 566 ft 181 kts 226°
2026-05-01 10:08 34.85200 33.59827 1266 ft 185 kts 225°
2026-05-01 10:09 34.84243 33.58781 1983 ft 185 kts 224°
2026-05-01 10:09 34.83157 33.57843 2449 ft 205 kts 200°
2026-05-01 10:09 34.81674 33.57895 2775 ft 230 kts 156°
2026-05-01 10:09 34.80481 33.59224 3319 ft 241 kts 118°
2026-05-01 10:10 34.79746 33.61064 4168 ft 243 kts 110°
2026-05-01 10:10 34.79114 33.62984 5032 ft 245 kts 109°
2026-05-01 10:10 34.77811 33.66994 6384 ft 275 kts 110°
2026-05-01 10:11 34.77056 33.69189 7142 ft 285 kts 110°
2026-05-01 10:11 34.76259 33.71424 8046 ft 290 kts 111°
2026-05-01 10:11 34.75431 33.73690 8911 ft 296 kts 112°
2026-05-01 10:11 34.74574 33.76000 9710 ft 303 kts 112°
2026-05-01 10:12 34.73674 33.78406 10163 ft 325 kts 113°
2026-05-01 10:12 34.72703 33.80995 10451 ft 348 kts 114°
2026-05-01 10:12 34.70638 33.86481 11696 ft 366 kts 115°
2026-05-01 10:13 34.69573 33.89309 12446 ft 371 kts 115°
2026-05-01 10:13 34.68496 33.92180 13186 ft 375 kts 116°
2026-05-01 10:13 34.67412 33.95071 13932 ft 378 kts 116°
2026-05-01 10:14 34.65218 34.00901 14703 ft 379 kts 117°
2026-05-01 10:14 34.64079 34.03857 14756 ft 395 kts 120°
2026-05-01 10:14 34.62620 34.06706 14762 ft 399 kts 127°
2026-05-01 10:14 34.61046 34.09494 14756 ft 401 kts 127°
2026-05-01 10:15 34.59468 34.12288 14757 ft 401 kts 127°
2026-05-01 10:15 34.57897 34.15077 14758 ft 401 kts 127°
2026-05-01 10:15 34.56322 34.17876 14761 ft 401 kts 127°
2026-05-01 10:15 34.54742 34.20671 14754 ft 401 kts 127°
2026-05-01 10:16 34.53163 34.23462 14756 ft 401 kts 127°
2026-05-01 10:16 34.51583 34.26255 14757 ft 401 kts 127°
2026-05-01 10:16 34.48420 34.31828 14760 ft 402 kts 127°
2026-05-01 10:17 34.46832 34.34620 14764 ft 402 kts 127°
2026-05-01 10:17 34.43667 34.40210 14766 ft 402 kts 127°
2026-05-01 10:17 34.42100 34.43013 14760 ft 402 kts 127°
2026-05-01 10:18 34.38978 34.48634 14762 ft 402 kts 127°
2026-05-01 10:18 34.37436 34.51409 14764 ft 402 kts 127°
2026-05-01 10:18 34.35852 34.54249 14765 ft 402 kts 127°
2026-05-01 10:19 34.34285 34.57047 14764 ft 402 kts 127°
2026-05-01 10:19 34.32733 34.59812 14767 ft 402 kts 127°
2026-05-01 10:19 34.31162 34.62604 14788 ft 402 kts 127°
2026-05-01 10:20 34.28011 34.68197 14784 ft 402 kts 127°
2026-05-01 10:20 34.26455 34.70955 14753 ft 391 kts 127°
2026-05-01 10:20 34.24993 34.73665 14529 ft 379 kts 122°
2026-05-01 10:20 34.23912 34.76533 14282 ft 375 kts 111°
2026-05-01 10:21 34.23125 34.79536 13982 ft 372 kts 109°
2026-05-01 10:21 34.21580 34.85476 12889 ft 369 kts 108°
2026-05-01 10:21 34.20810 34.88418 12382 ft 366 kts 108°
2026-05-01 10:22 34.19285 34.94264 11256 ft 364 kts 107°
2026-05-01 10:22 34.17774 35.00051 10258 ft 357 kts 106°
2026-05-01 10:23 34.17041 35.02810 10130 ft 342 kts 106°
2026-05-01 10:23 34.15641 35.08079 9875 ft 318 kts 106°
2026-05-01 10:23 34.14978 35.10582 9668 ft 310 kts 105°
2026-05-01 10:24 34.13682 35.15492 8993 ft 302 kts 105°
2026-05-01 10:24 34.12428 35.20241 8089 ft 289 kts 105°
2026-05-01 10:25 34.11238 35.24731 7325 ft 279 kts 105°
2026-05-01 10:25 34.10051 35.29207 6561 ft 281 kts 105°
2026-05-01 10:26 34.09451 35.31462 6178 ft 282 kts 105°
2026-05-01 10:26 34.08854 35.33716 5788 ft 283 kts 105°
2026-05-01 10:26 34.07616 35.38205 4996 ft 286 kts 113°
2026-05-01 10:27 34.04929 35.41739 4162 ft 291 kts 150°
2026-05-01 10:27 34.01086 35.43134 3323 ft 292 kts 167°
2026-05-01 10:28 33.99104 35.43682 2912 ft 291 kts 167°
2026-05-01 10:28 33.95178 35.44780 2311 ft 283 kts 167°
2026-05-01 10:28 33.93290 35.45306 1996 ft 278 kts 167°
2026-05-01 10:29 33.89652 35.46321 1213 ft 256 kts 167°
2026-05-01 10:29 33.87964 35.46789 904 ft 238 kts 167°
2026-05-01 10:30 33.85200 35.47558 331 ft 170 kts 168°
2026-05-01 10:30 33.83183 35.48123 16 ft 128 kts 167°
2026-05-01 10:31 33.82109 35.48416 15 ft 39 kts 166°
2026-05-01 10:31 33.81764 35.48724 14 ft 32 kts 128°
2026-05-01 10:32 33.81761 35.49047 17 ft 18 kts 27°
2026-05-01 10:32 33.81879 35.49052 15 ft 17 kts 356°
2026-05-01 10:32 33.82151 35.49032 14 ft 20 kts 357°
2026-05-01 10:33 33.82224 35.49205 17 ft 15 kts 66°
2026-05-01 10:33 33.82355 35.49217 15 ft 8 kts 282°
2026-05-01 10:34 33.82360 35.49189 15 ft 1 kts 284°
2026-05-01 10:34 33.82361 35.49188 15 ft 0 kts 284°